Location: Peterborough
(44.3091°N, 78.3197°W)
Time: 13:49:15
(UTC-04:00)

Tiros 1 despin weight - Pass Details

Date: 23 March 2023
Orbit: 586 x 633 km, 48.2° (Epoch: 03 June)

Event Time Altitude Azimuth Distance (km) Brightness Sun altitude
Exits shadow 05:43:34 19° 207° (SSW) 1,477 ? -16.3°
Drops below altitude 10° 05:46:01 10° 176° (S) 1,983 ? -15.8°
Sets 05:48:49 0° 159° (SSE) 2,893 ? -15.4°
